101  
ASUS41 KBOX 180210  
RWRBOX  
 
REGIONAL WEATHER ROUNDUP  
NATIONAL WEATHER SERVICE BOSTON/NORTON MA  
1000 PM EDT WED OCT 17 2018  
 
NOTE: "FAIR" INDICATES FEW OR NO CLOUDS BELOW 12,000 FEET WITH NO  
SIGNIFICANT WEATHER AND/OR S TO VISIBILITY
.  
 
MAZALL-180300-  
EASTERN MASSACHUSETTS  
 
CITY SKY/WX TMP DP RH WIND PRES REMARKS
 
BOSTON FAIR 50 32 50 W18G28 29.91R  
BEVERLY CLOUDY 47 34 60 W10G20 29.89R  
LAWRENCE MOCLDY 48 34 58 W14G23 29.91R  
BEDFORD MOCLDY 47 32 56 W13G22 29.92R  
BLUE HILL N/A 42 37 82 W18G28 29.90R  
NORWOOD FAIR 47 38 71 W10 29.92R  
MARSHFIELD FAIR 48 36 61 W9G16 29.91R  
PLYMOUTH FAIR 48 36 63 W13 29.92R  
TAUNTON FAIR 46 37 71 W7 29.93R  
NEW BEDFORD FAIR 48 36 63 W15G24 29.94R  

 
 
MAZALL-180300-  
CAPE COD AND THE ISLANDS  
 
CITY SKY/WX TMP DP RH WIND PRES REMARKS
 
FALMOUTH FAIR 46 37 71 W14G20 29.94R  
HYANNIS FAIR 48 38 68 W10 29.91R  
CHATHAM FAIR 50 37 61 W9G22 29.91R  
PROVINCETOWN FAIR 50 38 63 W25G35 29.89R  
NANTUCKET FAIR 51 36 56 W17G29 29.92R  
MARTHAS VNYRD FAIR 50 35 56 NW20G29 29.94R  

 
 
MAZALL-180300-  
CENTRAL AND WESTERN MASSACHUSETTS  
 
CITY SKY/WX TMP DP RH WIND PRES REMARKS
 
WORCESTER FAIR 40 32 73 W16G24 29.92R WCI 31  
FITCHBURG FAIR 43 32 65 NW10 29.94R  
ORANGE LGT RAIN 45 30 55 NW13G25 29.95R  
SPRINGFIELD MOCLDY 43 31 61 NW14G25 29.98R  
WESTFIELD FAIR 43 32 65 NW13 29.99R  
NORTH ADAMS LGT RAIN 39 34 82 W16G29 29.98R WCI 30  
PITTSFIELD FAIR 39 30 70 W15G22 29.96R WCI 31  

 
 
RIZALL-180300-  
RHODE ISLAND  
 
CITY SKY/WX TMP DP RH WIND PRES REMARKS
 
PROVIDENCE FAIR 47 33 58 NW14G25 29.97R  
NEWPORT FAIR 48 35 60 NW14G23 29.97R  
BLOCK ISLAND CLOUDY 50 36 58 NW17G28 29.99R  
SMITHFIELD FAIR 43 34 70 W9G17 29.95R  
WESTERLY FAIR 49 36 61 NW6 30.00R  

 
 
CTZALL-180300-  
CONNECTICUT  
 
CITY SKY/WX TMP DP RH WIND PRES REMARKS
 
BRADLEY INTL MOCLDY 46 30 53 NW10 30.01R  
HARTFORD CLOUDY 48 34 58 NW9G17 30.01R  
BRIDGEPORT FAIR 49 34 56 W7G17 30.03R  
DANBURY FAIR 46 33 60 W10 30.04R  
GROTON FAIR 48 36 63 NW13 30.00R  
NEW HAVEN FAIR 51 35 54 NW9G24 30.02R  
CHESTER MOCLDY 46 36 66 NW6 30.00R  
MERIDEN CLOUDY 43 37 79 CALM 30.02R  
WILLIMANTIC MOCLDY 46 35 65 NW7 30.00R  
OXFORD FAIR 44 33 65 W7 30.01R  

 
 
MEZ002-015-021-024-NHZ003-005-008-011-012-014-VTZ005-008-180300-  
NORTHERN NEW ENGLAND  
 
CITY SKY/WX TMP DP RH WIND PRES REMARKS
 
PORTLAND ME FAIR 42 32 67 W15 29.84R  
BANGOR ME FAIR 39 31 72 VRB6 29.75R  
CONCORD NH FAIR 41 35 79 W7 29.88R  
MANCHESTER NH MOCLDY 44 35 70 W5 29.88R  
NASHUA NH MOCLDY 43 36 76 W13 29.91R  
PORTSMOUTH NH PTCLDY 43 36 75 SW7 29.86R  
JAFFREY NH FAIR 40 36 86 MISG 29.90R  
KEENE NH MOCLDY 42 32 67 W7 29.93R  
BURLINGTON VT CLOUDY 42 26 53 NW20G25 29.94R  
MT. WASHINGTON SNOW 14 14 100 NW72G84 N/A VSB 0 WCI -15  

 
 
NYZ052-076-180300-  
EASTERN NEW YORK  
 
CITY SKY/WX TMP DP RH WIND PRES REMARKS
 
ALBANY FAIR 43 31 62 NW15G21 30.03R  
NEW YORK CITY FAIR 54 33 45 NW23G33 30.07R  

 
 
ANZALL-180300-  
MARINE OBSERVATIONS  
 
STATION/POSITION TIME TEMP WIND PRES VSBY WAVE
 
AIR SEA DIR/SP/G HT/PER  
(UTC) (F) (DEG/KT/KT) (MB) (MI) (FT/S)  
BOSTON BUOY 0150 51 59 280/ 25/ 31 1011.2R 4/ 4  
BUZZARDS BAY 0100 52 290/ 29/ 33 1013.7R  
NANTUCKET SOUND 0150 53 62 300/ 21/ 31 1013.2R 3/ 5  
MASS BAY-STELLWA 0104 51 57 290/ 21/ 25 1009.8R 1 7/8 3/ 4  
ISLE OF SHOALS 0100 47 280/ 22/ 25 1010.0R  
S OF BLOCK IS 0143 63 N/A 8/ 7  

 
   
.....................KEY......................
 
 
SKY/WX - SKY CONDITION/PRESENT WEATHER  
TMP - TEMPERATURE IN FAHRENHEIT  
DWPT - DEWPOINT IN FAHRENHEIT  
RH - RELATIVE HUMIDITY IN PERCENT  
WIND - DIRECTION AND SPEED IN MPH  
PRES - MEAN SEA LEVEL PRESSURE IN INCHES OF HG  
WCI - WIND CHILL INDEX  
VSB - VISIBILITY IN MILES  
HX - HEAT INDEX  
TC - TEMPERATURE IN CELSIUS  
VRB - VARIABLE WIND DIRECTION  
N/A - NOT AVAILABLE  
 
 
CLICK HERE TO GO TO PREVIOUS BULLETINS.

The Nexlab MA Page
The Nexlab RI Page
The Nexlab NH Page
The Nexlab CT Page Main Text Page